Theta_e
341 342 344 346 349 350 348 346 346 347 347 345 343 342 343 343 342 344 346 346 346 347 348 349 348 346 344 341 341 346 345 333 325 325 326 326 326 327 327 327 328 330
339 342 344 347 351 351 348 346 345 343 343 342 341 341 341 342 342 343 345 346 348 347 348 347 345 344 342 340 345 345 335 325 325 327 326 325 325 325 325 326 327 329
337 341 346 348 351 351 347 344 342 339 337 339 341 344 344 344 343 343 345 348 347 346 346 345 344 342 339 343 347 338 326 324 327 326 325 325 324 325 326 327 328 329
335 338 344 348 350 350 346 342 342 341 341 343 345 345 345 345 344 344 346 346 345 346 346 344 342 338 341 346 342 328 323 326 327 325 325 324 324 326 327 327 328 329
335 334 338 344 347 347 342 340 344 344 346 347 346 343 344 344 344 345 346 346 346 346 344 342 339 339 344 343 331 323 325 327 326 325 325 325 326 327 328 328 329 329
336 334 335 339 340 338 337 340 344 346 347 348 345 343 343 344 344 345 345 345 345 344 343 341 339 342 344 334 322 323 327 326 325 325 325 326 327 328 329 330 330 330
336 335 335 333 333 335 338 341 344 345 347 347 344 343 342 341 343 344 344 344 343 344 344 341 341 345 338 324 321 326 326 325 325 325 326 327 328 329 330 330 331 332
335 335 332 331 336 343 344 345 345 345 345 345 344 343 341 341 343 343 343 344 344 345 342 340 344 342 328 320 323 326 326 326 325 325 327 328 328 329 330 330 332 332
336 335 331 334 343 347 347 346 347 347 345 345 345 343 343 342 343 344 345 345 344 342 339 342 344 335 321 320 325 326 326 326 325 326 327 328 328 329 330 330 331 332
341 338 334 340 347 347 347 348 347 347 346 345 346 345 344 344 344 345 345 344 343 340 340 345 340 326 318 323 326 326 326 325 325 327 328 328 328 329 330 330 331 333
346 344 340 344 347 347 348 348 346 347 346 345 347 347 347 346 346 346 344 343 341 340 343 345 333 321 320 324 326 326 326 326 326 327 328 328 328 329 330 331 332 334
350 350 345 345 347 348 349 348 346 346 345 346 348 349 348 347 347 346 344 343 341 341 345 341 326 319 322 325 326 326 326 326 326 326 328 329 328 329 329 330 332 335
351 351 348 344 346 349 349 348 347 345 344 346 349 351 350 348 348 346 344 342 340 342 346 335 321 320 324 326 327 327 326 326 325 326 328 329 329 329 329 330 332 334
350 350 349 346 346 347 349 348 346 345 345 348 351 352 350 349 348 346 344 341 340 345 344 330 319 322 325 326 327 326 326 326 325 326 327 328 329 329 328 329 330 332
350 349 348 347 346 346 348 347 344 345 348 350 351 351 349 348 346 345 343 340 342 347 341 325 320 323 325 326 327 326 327 327 326 326 327 327 327 326 324 324 326 330
350 350 349 349 348 346 346 346 345 347 349 348 349 347 346 345 344 344 342 340 345 347 335 322 321 324 325 327 327 327 327 327 326 326 325 323 320 319 318 319 320 323
351 351 350 349 348 346 346 347 348 348 348 348 347 345 344 344 343 343 341 342 348 345 330 321 322 323 325 327 326 327 327 326 326 324 319 315 313 312 315 318 319 320
351 352 350 349 348 347 349 350 351 350 349 347 344 342 342 341 342 342 340 344 349 341 326 320 321 323 325 326 326 327 326 326 325 320 313 310 309 311 315 320 323 325
350 353 352 350 349 349 350 350 349 348 345 341 340 339 339 339 340 340 341 347 349 338 324 320 321 322 324 326 327 327 326 325 323 316 310 309 308 311 317 321 324 327
348 351 352 351 350 349 347 345 344 342 339 337 337 338 338 338 339 340 342 348 348 335 322 321 321 322 324 326 327 326 325 324 320 313 309 309 309 312 318 322 323 325
345 348 350 351 349 346 342 340 339 338 337 336 337 338 339 339 339 340 344 349 346 332 322 321 321 322 325 326 326 325 324 322 316 310 309 308 309 313 318 322 324 325
344 345 347 347 345 341 338 337 337 337 337 337 336 338 339 339 339 341 345 350 344 329 322 321 320 322 325 326 325 323 322 319 313 309 309 309 310 314 318 322 325 327
344 341 341 340 339 337 337 337 337 336 337 336 337 338 338 338 339 341 346 349 341 327 321 321 320 322 325 325 324 322 320 317 312 309 309 309 310 314 317 321 325 327
342 338 337 337 337 337 337 337 337 336 337 336 336 337 338 339 340 342 347 348 338 326 322 321 321 322 323 324 324 321 319 317 313 309 309 309 311 314 317 320 324 327
339 337 337 338 338 338 337 338 337 337 337 336 336 338 339 340 340 343 347 347 336 325 322 322 321 321 322 323 324 321 320 319 314 310 308 309 311 314 317 321 324 327
339 340 340 340 340 339 339 340 339 338 337 336 337 339 339 340 341 344 348 346 335 325 322 322 321 320 319 321 323 322 319 318 316 311 308 309 311 313 316 321 325 327
Wind_Speed
25 23 21 19 15 14 15 15 17 19 19 19 17 14 13 13 13 11 9 9 11 13 14 14 16 20 24 25 24 25 27 27 24 22 19 18 18 18 17 17 16 14
25 24 23 22 16 15 16 16 17 19 18 18 15 12 12 14 14 14 14 12 11 11 12 14 18 22 23 23 24 26 26 24 21 18 18 19 19 18 16 14 12 10
26 26 26 23 19 18 17 14 14 14 14 14 11 10 13 16 16 15 14 13 12 13 14 16 20 22 22 23 25 25 24 20 18 17 18 19 17 14 12 11 11 10
26 27 27 24 21 21 17 14 14 13 11 10 9 11 15 17 18 16 15 15 14 14 16 18 21 22 22 23 24 22 20 17 16 17 18 17 14 12 12 13 12 11
25 25 25 24 23 21 17 15 15 11 10 11 11 11 12 13 15 15 15 15 14 15 18 21 22 21 21 22 20 18 15 14 15 16 16 13 12 13 15 15 15 14
24 23 23 22 21 19 16 16 14 11 13 15 12 9 11 11 12 13 14 15 16 18 20 21 21 19 20 19 16 14 13 13 15 14 13 11 13 15 17 17 17 16
24 23 22 21 19 17 15 14 13 13 16 16 13 11 12 13 14 15 16 16 18 19 19 19 18 17 17 16 13 12 12 13 13 12 10 12 14 16 17 17 16 15
23 22 21 21 20 17 14 12 12 14 16 15 15 15 15 16 17 17 16 16 18 18 18 17 16 16 15 13 12 11 11 11 11 10 10 12 14 16 16 15 14 14
23 21 22 22 20 16 13 11 13 15 15 13 14 17 19 19 17 16 15 16 17 18 18 16 15 14 13 11 10 9 9 10 10 10 10 11 13 15 15 14 13 13
20 18 21 22 19 15 13 14 16 18 17 14 12 15 19 19 17 15 15 16 18 19 17 14 13 12 10 9 8 7 8 9 10 9 10 11 13 14 14 13 13 14
19 17 20 20 18 16 16 19 20 20 18 14 12 15 17 17 16 14 13 16 18 18 15 12 11 11 9 7 6 6 7 9 9 9 9 10 12 13 13 12 12 13
21 20 20 21 19 19 20 22 22 21 18 14 13 15 16 15 14 12 14 16 18 17 13 11 10 8 7 6 5 5 7 8 8 8 8 9 10 11 11 10 10 10
23 22 21 22 22 22 22 23 22 21 18 14 13 14 14 13 12 13 15 17 17 15 12 9 8 7 5 5 4 5 6 7 8 7 7 8 9 9 8 8 7 6
23 22 23 25 26 26 25 23 21 19 17 14 12 12 13 13 14 15 17 17 16 13 11 9 7 6 4 4 4 4 5 7 7 6 6 6 6 6 6 7 6 5
22 21 23 26 30 31 28 24 21 19 16 14 13 14 14 15 17 17 17 17 14 11 9 8 6 5 4 3 3 4 5 6 6 5 5 5 5 5 5 6 6 6
21 20 20 24 31 33 29 24 21 19 18 17 16 16 17 17 17 17 17 15 12 9 8 7 5 4 3 2 2 4 5 5 5 5 5 5 6 6 6 6 5 4
21 19 20 24 29 30 26 23 21 20 19 19 19 18 18 17 17 17 16 13 10 8 7 6 5 4 2 1 1 3 4 5 5 5 5 6 6 6 6 6 4 2
23 21 23 26 27 26 23 22 21 20 20 20 20 20 18 18 18 16 14 11 9 7 7 6 5 4 2 0 2 2 3 4 5 5 5 5 6 6 7 6 4 3
28 25 24 24 24 23 22 21 21 21 21 21 21 20 19 18 17 15 13 10 8 7 7 6 5 4 2 1 2 2 3 4 5 4 4 5 6 7 7 6 6 5
32 29 26 24 23 22 21 21 21 21 21 21 22 21 19 18 17 15 12 10 8 7 7 6 6 4 2 2 3 4 4 5 4 4 4 6 7 7 8 8 8 8
34 32 29 27 25 23 23 22 21 21 20 21 22 21 19 18 16 14 12 10 8 8 7 7 6 4 3 4 4 5 6 5 4 4 4 5 7 8 9 10 10 10
33 33 32 30 27 26 25 24 23 22 21 22 22 22 20 19 17 15 12 10 9 9 8 7 6 5 4 5 6 6 6 5 4 4 4 5 7 9 10 11 11 10
31 32 31 30 28 27 26 26 25 23 22 22 23 23 22 21 19 15 12 11 10 9 9 8 7 6 6 6 7 7 6 5 4 4 5 6 8 9 10 12 13 12
31 30 29 28 28 27 27 27 26 25 24 23 23 24 23 22 19 16 13 12 11 10 9 8 7 7 7 7 8 7 6 6 5 5 6 7 8 9 11 13 14 15
30 29 28 28 27 27 27 28 27 26 25 24 25 25 24 22 19 16 14 13 12 11 10 9 8 7 7 8 9 8 7 6 6 6 7 7 8 9 12 13 15 16
30 29 28 27 27 27 28 29 29 28 27 26 26 26 25 23 20 16 15 14 13 12 11 10 9 8 8 9 10 9 7 5 8 8 7 7 8 9 12 14 16 17
Wind_Direction
211 209 205 204 211 223 222 221 225 229 230 229 233 243 252 258 262 263 256 247 243 243 250 262 282 298 307 312 315 317 318 319 322 327 334 340 340 338 334 329 326 327
207 203 202 206 210 217 218 220 227 231 229 226 228 236 246 254 260 259 255 253 245 243 258 279 294 304 309 314 316 318 321 324 330 337 345 348 345 343 340 338 345 356
204 201 202 205 207 214 220 220 219 219 218 219 228 250 261 264 265 260 251 251 252 260 277 292 301 308 313 315 317 321 326 332 338 346 350 350 350 353 360 9 21 32
204 204 205 207 208 215 224 224 212 202 207 224 252 267 265 263 259 253 249 252 258 271 287 299 306 311 314 316 320 326 331 337 345 352 354 356 3 18 30 38 43 47
206 207 209 211 215 220 226 221 209 203 221 246 269 261 242 240 241 240 246 254 266 281 295 305 308 311 314 318 324 329 332 342 355 1 2 10 28 43 51 54 56 58
208 208 208 212 217 219 218 211 205 212 233 251 268 249 224 226 235 242 254 267 279 288 298 305 308 311 316 320 325 330 339 355 7 10 15 33 51 58 63 64 63 63
208 208 207 205 203 203 206 205 208 220 235 252 263 246 236 245 249 254 264 276 283 290 298 305 309 313 318 321 328 337 350 8 17 21 34 55 65 68 71 70 67 67
209 208 203 195 190 191 199 207 221 232 240 256 262 254 253 254 253 257 268 278 286 294 303 308 311 315 317 324 334 344 2 20 26 34 54 68 72 76 77 73 71 70
209 208 199 190 189 188 190 206 229 236 241 254 262 258 254 251 251 260 272 283 294 304 308 308 311 314 318 329 341 352 13 29 34 46 67 76 78 82 80 77 75 72
204 205 199 192 192 194 199 220 231 230 235 249 259 253 247 246 251 261 276 292 303 307 305 305 311 314 321 336 346 0 23 36 43 56 74 81 84 87 87 85 83 77
199 201 201 193 194 207 220 227 227 228 235 243 246 242 241 243 250 264 284 298 304 304 302 305 311 314 325 340 350 11 34 43 49 61 77 84 88 92 94 94 89 81
204 208 206 197 201 216 224 223 224 231 237 239 241 242 242 245 255 275 292 298 301 301 299 305 311 316 328 340 354 24 43 49 52 62 75 83 90 96 102 106 99 87
211 216 214 209 213 218 219 219 224 232 235 238 246 246 245 252 268 285 292 296 300 298 297 306 312 316 329 342 4 33 49 53 55 62 71 79 89 97 107 116 114 98
214 221 221 219 220 219 218 222 227 230 232 237 242 243 248 261 275 284 289 296 298 294 297 307 309 314 330 347 14 40 56 59 57 61 70 77 85 90 94 99 101 96
215 222 224 224 223 220 220 224 225 224 229 235 238 244 255 265 275 281 288 294 292 289 296 303 302 310 322 343 23 49 64 65 61 60 66 72 77 79 74 74 80 88
213 217 221 223 220 217 218 220 219 222 230 238 244 252 260 268 274 280 285 289 285 283 292 293 290 297 303 332 33 64 74 72 65 59 65 75 78 76 67 65 71 83
207 209 212 211 209 210 213 215 218 224 232 240 248 255 261 267 271 276 281 281 274 276 284 279 274 278 280 306 46 74 78 78 75 71 76 80 76 69 60 59 62 67
199 200 203 202 204 207 211 214 219 225 233 243 250 255 260 264 268 273 276 271 264 268 272 263 259 261 259 300 62 77 84 89 89 87 85 78 69 59 50 47 45 48
200 199 202 205 209 213 216 222 227 232 238 245 250 253 256 260 264 269 269 262 257 261 260 250 247 247 237 99 96 118 120 108 104 100 87 72 65 56 50 53 60 72
207 205 206 209 215 221 227 232 236 238 242 245 248 251 254 258 264 267 263 253 250 253 249 239 237 234 191 135 145 149 138 125 113 97 78 67 63 59 62 70 77 87
214 212 212 215 222 230 235 239 240 241 242 244 247 250 253 257 261 261 254 245 242 244 237 229 228 216 173 156 157 150 141 133 116 92 77 72 68 68 74 81 85 93
217 217 219 222 227 233 237 238 239 240 241 243 246 248 250 253 254 252 245 237 236 236 227 221 219 202 176 166 161 154 146 135 119 105 94 81 73 75 82 89 93 99
216 217 219 222 226 231 234 236 237 238 240 241 244 247 248 249 247 243 237 231 231 231 222 213 209 195 179 171 167 162 154 144 137 128 105 86 80 83 88 94 100 104
216 216 218 222 226 230 233 235 235 236 238 240 244 246 246 244 241 235 230 226 224 223 215 206 202 192 180 177 174 171 167 158 151 137 111 91 86 91 95 97 101 104
219 220 222 225 229 232 234 235 235 235 236 239 242 243 241 239 235 230 227 223 218 215 207 198 197 193 185 182 180 182 190 175 148 131 114 101 97 100 101 101 103 104
222 224 227 229 231 233 234 234 234 234 236 237 238 237 235 233 230 226 223 219 215 212 203 194 196 196 190 186 184 190 198 166 139 132 121 113 113 110 107 107 107 107